Radiation Dose at Monitoring Post of Fukushima Daini Nuclear Power Station
Date,Time,MP-1(microSv/h),MP-2(microSv/h),MP-3(microSv/h),MP-4(microSv/h),MP-5(microSv/h),MP-6(microSv/h),MP-7(microSv/h),Wind Direction,Wind Velocity(m/s),Rain
2023/09/01,00:00,0.153,0.141,0.231,0.216,0.214,0.124,0.078,south,4.4,No
2023/09/01,00:10,0.153,0.139,0.230,0.218,0.217,0.125,0.079,south,5.0,No
2023/09/01,00:20,0.154,0.141,0.229,0.217,0.215,0.125,0.078,south,5.2,No
2023/09/01,00:30,0.155,0.140,0.231,0.217,0.213,0.125,0.078,south,4.9,No
2023/09/01,00:40,0.154,0.139,0.231,0.217,0.216,0.125,0.079,south,4.9,No
2023/09/01,00:50,0.153,0.140,0.229,0.219,0.217,0.127,0.079,south,5.3,No
2023/09/01,01:00,0.155,0.140,0.230,0.217,0.214,0.126,0.078,south-southwest,5.4,No
2023/09/01,01:10,0.154,0.140,0.230,0.216,0.215,0.124,0.078,south,5.7,No
2023/09/01,01:20,0.152,0.140,0.229,0.218,0.216,0.125,0.079,south,5.4,No
2023/09/01,01:30,0.155,0.141,0.232,0.217,0.214,0.125,0.079,south,5.1,No
2023/09/01,01:40,0.154,0.139,0.231,0.216,0.214,0.126,0.078,south,5.8,No
2023/09/01,01:50,0.153,0.141,0.229,0.218,0.216,0.125,0.079,south,5.1,No
2023/09/01,02:00,0.154,0.141,0.231,0.218,0.214,0.126,0.079,south,5.6,No
2023/09/01,02:10,0.154,0.140,0.231,0.215,0.213,0.126,0.079,south,5.6,No
2023/09/01,02:20,0.153,0.141,0.229,0.218,0.217,0.125,0.079,south,5.5,No
2023/09/01,02:30,0.154,0.140,0.231,0.219,0.215,0.125,0.078,south,6.2,No
2023/09/01,02:40,0.155,0.139,0.231,0.217,0.214,0.127,0.078,south-southwest,6.2,No
2023/09/01,02:50,0.154,0.141,0.230,0.217,0.216,0.125,0.078,south-southwest,5.7,No
2023/09/01,03:00,0.154,0.140,0.231,0.219,0.216,0.124,0.079,south,4.9,No
2023/09/01,03:10,0.155,0.140,0.232,0.218,0.214,0.126,0.078,south-southwest,6.2,No
2023/09/01,03:20,0.152,0.142,0.229,0.216,0.215,0.126,0.079,south,4.9,No
2023/09/01,03:30,0.153,0.140,0.230,0.219,0.217,0.126,0.078,south-southwest,4.9,No
2023/09/01,03:40,0.154,0.140,0.231,0.217,0.216,0.125,0.078,south,5.0,No
2023/09/01,03:50,0.154,0.141,0.229,0.216,0.213,0.126,0.079,south-southwest,5.5,No
2023/09/01,04:00,0.152,0.140,0.231,0.218,0.217,0.127,0.079,south,3.9,No
2023/09/01,04:10,0.154,0.140,0.231,0.217,0.215,0.125,0.078,south,4.6,No
2023/09/01,04:20,0.153,0.141,0.229,0.216,0.213,0.125,0.078,south,5.4,No
2023/09/01,04:30,0.152,0.139,0.230,0.218,0.217,0.127,0.079,south,5.5,No
2023/09/01,04:40,0.154,0.141,0.231,0.219,0.215,0.126,0.078,south-southwest,5.5,No
2023/09/01,04:50,0.153,0.141,0.230,0.216,0.212,0.125,0.079,south-southwest,5.0,No
2023/09/01,05:00,0.153,0.140,0.231,0.218,0.216,0.127,0.079,south,4.5,No
2023/09/01,05:10,0.154,0.140,0.230,0.219,0.215,0.126,0.078,south,4.3,No
2023/09/01,05:20,0.154,0.140,0.229,0.216,0.213,0.125,0.078,south,4.6,No
2023/09/01,05:30,0.153,0.140,0.231,0.218,0.216,0.127,0.078,south,4.8,No
2023/09/01,05:40,0.155,0.140,0.230,0.218,0.216,0.125,0.079,south,6.1,No
2023/09/01,05:50,0.153,0.139,0.228,0.217,0.212,0.126,0.078,south,5.6,No
2023/09/01,06:00,0.153,0.141,0.232,0.217,0.216,0.125,0.078,south,5.6,No
2023/09/01,06:10,0.154,0.141,0.230,0.218,0.216,0.126,0.079,south-southwest,5.9,No
2023/09/01,06:20,0.154,0.140,0.228,0.217,0.213,0.126,0.079,south-southwest,5.6,No
2023/09/01,06:30,0.151,0.141,0.231,0.217,0.214,0.125,0.078,south,4.7,No
2023/09/01,06:40,0.153,0.141,0.231,0.219,0.217,0.127,0.078,south,4.2,No
2023/09/01,06:50,0.155,0.140,0.228,0.218,0.216,0.127,0.078,south,3.7,No
2023/09/01,07:00,0.153,0.140,0.231,0.216,0.212,0.125,0.078,south,2.9,No
2023/09/01,07:10,0.153,0.141,0.232,0.217,0.214,0.126,0.078,south,3.5,No
2023/09/01,07:20,0.154,0.139,0.230,0.218,0.216,0.126,0.079,south,3.1,No
2023/09/01,07:30,0.154,0.140,0.229,0.218,0.216,0.127,0.079,south,3.0,No
2023/09/01,07:40,0.153,0.142,0.229,0.218,0.214,0.126,0.079,south-southeast,3.7,No
2023/09/01,07:50,0.152,0.141,0.229,0.217,0.212,0.126,0.079,south-southeast,3.6,No
2023/09/01,08:00,0.154,0.141,0.230,0.217,0.214,0.126,0.079,south,4.0,No
2023/09/01,08:10,0.154,0.140,0.230,0.216,0.216,0.126,0.078,south,5.3,No
2023/09/01,08:20,0.153,0.138,0.230,0.217,0.217,0.127,0.078,south,6.0,No
2023/09/01,08:30,0.153,0.139,0.230,0.217,0.216,0.126,0.079,south,6.9,No
2023/09/01,08:40,0.154,0.139,0.231,0.217,0.215,0.126,0.079,south,7.2,No
2023/09/01,08:50,0.154,0.139,0.229,0.217,0.214,0.126,0.079,south,7.9,No
2023/09/01,09:00,0.154,0.141,0.231,0.217,0.214,0.126,0.079,south,8.1,No
2023/09/01,09:10,0.154,0.142,0.230,0.216,0.215,0.125,0.079,south,9.3,No
2023/09/01,09:20,0.152,0.140,0.231,0.218,0.215,0.126,0.078,south-southeast,9.5,No
2023/09/01,09:30,0.154,0.139,0.232,0.219,0.214,0.126,0.079,south-southeast,9.5,No
2023/09/01,09:40,0.153,0.140,0.231,0.219,0.215,0.125,0.078,south-southeast,9.3,No
2023/09/01,09:50,0.153,0.140,0.231,0.217,0.215,0.126,0.078,south-southeast,9.5,No
2023/09/01,10:00,0.154,0.140,0.231,0.217,0.215,0.126,0.079,south-southeast,10.0,No
2023/09/01,10:10,0.153,0.140,0.231,0.219,0.213,0.126,0.078,south-southeast,11.5,No
2023/09/01,10:20,0.154,0.141,0.232,0.218,0.214,0.125,0.078,south-southeast,10.9,No
2023/09/01,10:30,0.154,0.140,0.232,0.219,0.217,0.126,0.078,south-southeast,10.7,No
2023/09/01,10:40,0.154,0.140,0.231,0.217,0.215,0.126,0.078,south,9.5,No
2023/09/01,10:50,0.154,0.140,0.230,0.217,0.215,0.126,0.078,south-southeast,10.6,No
2023/09/01,11:00,0.154,0.140,0.230,0.218,0.216,0.126,0.079,south-southeast,10.9,No
2023/09/01,11:10,0.153,0.141,0.230,0.217,0.215,0.125,0.078,south,12.9,No
2023/09/01,11:20,0.154,0.140,0.230,0.217,0.215,0.125,0.078,south-southeast,12.6,No
2023/09/01,11:30,0.155,0.141,0.230,0.216,0.215,0.127,0.078,south-southeast,11.5,No
2023/09/01,11:40,0.154,0.141,0.231,0.217,0.214,0.124,0.079,south-southeast,11.5,No
2023/09/01,11:50,0.155,0.142,0.232,0.218,0.215,0.126,0.078,south-southeast,12.6,No
2023/09/01,12:00,0.154,0.141,0.231,0.218,0.214,0.125,0.078,southeast,11.7,No
2023/09/01,12:10,0.155,0.141,0.231,0.217,0.214,0.126,0.078,south-southeast,11.7,No
2023/09/01,12:20,0.155,0.141,0.231,0.217,0.215,0.125,0.078,south-southeast,13.4,No
2023/09/01,12:30,0.155,0.140,0.229,0.217,0.214,0.125,0.078,south-southeast,12.8,No
2023/09/01,12:40,0.153,0.140,0.230,0.218,0.215,0.127,0.079,south-southeast,12.3,No
2023/09/01,12:50,0.153,0.140,0.230,0.218,0.215,0.126,0.078,south-southeast,13.6,No
2023/09/01,13:00,0.155,0.141,0.230,0.218,0.214,0.126,0.078,south-southeast,11.2,No
2023/09/01,13:10,0.155,0.141,0.231,0.218,0.214,0.126,0.078,south-southeast,11.4,No
2023/09/01,13:20,0.154,0.141,0.231,0.217,0.215,0.126,0.079,south-southeast,10.4,No
2023/09/01,13:30,0.154,0.140,0.230,0.219,0.215,0.126,0.078,south-southeast,12.3,No
2023/09/01,13:40,0.154,0.140,0.231,0.218,0.215,0.125,0.078,south-southeast,12.3,No
2023/09/01,13:50,0.154,0.141,0.230,0.218,0.215,0.126,0.079,south-southeast,12.2,No
2023/09/01,14:00,0.154,0.140,0.230,0.219,0.215,0.126,0.078,south-southeast,11.8,No
2023/09/01,14:10,0.154,0.140,0.231,0.218,0.215,0.125,0.078,south-southeast,12.8,No
2023/09/01,14:20,0.154,0.140,0.229,0.216,0.216,0.126,0.078,south-southeast,12.8,No
2023/09/01,14:30,0.154,0.139,0.230,0.218,0.214,0.126,0.078,south-southeast,12.8,No
2023/09/01,14:40,0.154,0.139,0.230,0.216,0.215,0.126,0.078,south-southeast,12.3,No
2023/09/01,14:50,0.152,0.142,0.229,0.217,0.215,0.126,0.079,south-southeast,10.7,No
2023/09/01,15:00,0.154,0.141,0.230,0.217,0.215,0.126,0.078,south-southeast,11.2,No
2023/09/01,15:10,0.154,0.139,0.228,0.217,0.213,0.126,0.077,south,10.0,No
2023/09/01,15:20,0.153,0.139,0.228,0.217,0.215,0.125,0.078,south,9.5,No
2023/09/01,15:30,0.153,0.140,0.229,0.217,0.215,0.127,0.077,south-southeast,8.8,No
2023/09/01,15:40,0.153,0.139,0.229,0.217,0.215,0.126,0.078,south,9.0,No
2023/09/01,15:50,0.152,0.140,0.229,0.217,0.215,0.126,0.078,south-southeast,8.8,No
2023/09/01,16:00,0.153,0.140,0.228,0.216,0.214,0.126,0.077,south-southeast,7.8,No
2023/09/01,16:10,0.153,0.139,0.230,0.216,0.215,0.125,0.077,south-southeast,8.6,No
2023/09/01,16:20,0.153,0.139,0.228,0.217,0.214,0.125,0.078,south,8.1,No
2023/09/01,16:30,0.152,0.140,0.230,0.216,0.214,0.125,0.077,south,8.7,No
2023/09/01,16:40,0.153,0.139,0.229,0.216,0.214,0.125,0.079,south,9.0,No
2023/09/01,16:50,0.152,0.140,0.229,0.215,0.214,0.125,0.078,south,8.6,No
2023/09/01,17:00,0.152,0.140,0.229,0.216,0.214,0.125,0.079,south,8.7,No
2023/09/01,17:10,0.152,0.139,0.228,0.216,0.214,0.125,0.077,south,7.4,No
2023/09/01,17:20,0.153,0.139,0.229,0.217,0.212,0.125,0.077,south,7.2,No
2023/09/01,17:30,0.152,0.139,0.231,0.221,0.212,0.126,0.077,south,6.7,No
2023/09/01,17:40,0.154,0.139,0.232,0.220,0.212,0.125,0.078,south,6.1,No
2023/09/01,17:50,0.154,0.140,0.231,0.219,0.213,0.125,0.078,south,5.3,No
2023/09/01,18:00,0.154,0.141,0.230,0.216,0.213,0.126,0.079,south,4.5,No
2023/09/01,18:10,0.153,0.141,0.230,0.215,0.213,0.126,0.079,south,5.1,No
2023/09/01,18:20,0.153,0.140,0.228,0.216,0.213,0.125,0.078,south,4.4,No
2023/09/01,18:30,0.152,0.139,0.232,0.220,0.216,0.125,0.078,south,5.4,No
2023/09/01,18:40,0.154,0.140,0.232,0.219,0.216,0.126,0.077,south,5.3,No
2023/09/01,18:50,0.154,0.141,0.231,0.217,0.214,0.126,0.078,south,5.9,No
2023/09/01,19:00,0.153,0.141,0.229,0.216,0.213,0.126,0.078,south,6.4,No
2023/09/01,19:10,0.152,0.140,0.228,0.215,0.213,0.126,0.078,south,5.9,No
2023/09/01,19:20,0.152,0.140,0.231,0.219,0.216,0.125,0.078,south,6.0,No
2023/09/01,19:30,0.155,0.139,0.232,0.218,0.215,0.126,0.079,south-southwest,7.1,No
2023/09/01,19:40,0.155,0.141,0.229,0.218,0.214,0.126,0.078,south,6.7,No
2023/09/01,19:50,0.153,0.141,0.229,0.215,0.212,0.126,0.078,south,6.6,No
2023/09/01,20:00,0.153,0.140,0.228,0.216,0.213,0.127,0.078,south,7.5,No
2023/09/01,20:10,0.153,0.139,0.232,0.219,0.215,0.126,0.077,south,6.7,No
2023/09/01,20:20,0.155,0.140,0.231,0.219,0.215,0.125,0.078,south,8.1,No
2023/09/01,20:30,0.154,0.141,0.230,0.218,0.214,0.125,0.079,south,7.5,No
2023/09/01,20:40,0.152,0.141,0.229,0.216,0.213,0.125,0.078,south,7.3,No
2023/09/01,20:50,0.152,0.140,0.229,0.217,0.213,0.125,0.078,south,7.5,No
2023/09/01,21:00,0.154,0.139,0.231,0.218,0.216,0.126,0.078,south,7.9,No
2023/09/01,21:10,0.154,0.141,0.232,0.218,0.216,0.126,0.077,south,7.6,No
2023/09/01,21:20,0.154,0.142,0.229,0.217,0.215,0.125,0.079,south,6.4,No
2023/09/01,21:30,0.153,0.140,0.228,0.215,0.213,0.125,0.078,south,7.5,No
2023/09/01,21:40,0.153,0.139,0.233,0.218,0.216,0.125,0.077,south,7.2,No
2023/09/01,21:50,0.155,0.139,0.231,0.219,0.216,0.126,0.078,south,7.5,No
2023/09/01,22:00,0.154,0.141,0.229,0.218,0.214,0.126,0.079,south,8.6,No
2023/09/01,22:10,0.153,0.141,0.229,0.217,0.213,0.126,0.078,south,7.9,No
2023/09/01,22:20,0.152,0.140,0.231,0.215,0.214,0.125,0.078,south,7.7,No
2023/09/01,22:30,0.153,0.139,0.233,0.217,0.217,0.125,0.078,south,7.9,No
2023/09/01,22:40,0.154,0.141,0.231,0.219,0.216,0.127,0.078,south,8.2,No
2023/09/01,22:50,0.154,0.142,0.229,0.217,0.214,0.126,0.078,south,7.5,No
2023/09/01,23:00,0.153,0.140,0.231,0.215,0.213,0.125,0.079,south,7.2,No
2023/09/01,23:10,0.153,0.141,0.230,0.218,0.214,0.125,0.078,south,7.4,No
2023/09/01,23:20,0.155,0.140,0.230,0.219,0.217,0.126,0.078,south,6.5,No
2023/09/01,23:30,0.155,0.141,0.229,0.218,0.214,0.126,0.079,south,5.7,No
2023/09/01,23:40,0.153,0.140,0.231,0.216,0.212,0.127,0.078,south,5.8,No
2023/09/01,23:50,0.153,0.139,0.232,0.217,0.216,0.126,0.078,south,5.3,No
